Regional Weather Roundup
Issued by NWS

Home | Current Version | Previous Version | Text Only | Print | Product List | Glossary On
Versions: 1 2 3 4 5 6 7 8 9 10 11 12 13 14 15 16 17 18 19 20 21 22 23 24 25 26 27 28 29 30 31 32 33 34 35 36 37 38 39 40 41 42 43 44 45 46 47 48 49 50
000
ASUS45 KABQ 221301
RWRNM
WEATHER ROUNDUP FOR NEW MEXICO
NATIONAL WEATHER SERVICE ALBUQUERQUE NM
700 AM MDT MON SEP 22 2014

NOTE: "FAIR" MEANS FEW OR NO CLOUDS BELOW 12,000 FEET AGL WITH NO
       SIGNIFICANT WEATHER OR OBSTRUCTIONS TO VISION.

      THIS PRODUCT IS RELEASED AS TWO VERSIONS.  ONE VERSION NEAR
      THE TOP OF THE HOUR CONTAINING PRELIMINARY DATA FROM ALBUQUERQUE
      AND OTHER STATIONS.  A FINAL VERSION WITH ADDITIONAL DATA IS
      ISSUED ABOUT 10 MINUTES AFTER THE HOUR.

NMZ501-503-504-510>518-221400-
NORTHWEST PLATEAU/NORTHCENTRAL MOUNTAINS

CITY           SKY/WX    TMP DP  RH WIND       PRES   REMARKS
FARMINGTON     CLOUDY    62  58  86 E9        30.25S
LOS ALAMOS     CLOUDY    58  55  89 S8        30.42R
SANTA FE       CLOUDY    61  55  81 SE10      30.36S
TAOS           CLOUDY    55  48  76 CALM      30.41S
ANGEL FIRE     CLOUDY    53  49  87 SW6       30.48S

$$
NMZ402-403-502-505>509-221400-
WESTCENTRAL MOUNTAINS/SOUTHWEST MOUNTAINS

CITY           SKY/WX    TMP DP  RH WIND       PRES   REMARKS
GALLUP         LGT RAIN  58  56  93 S3        30.33R
GRANTS         MOCLDY    54  52  94 S6        30.37S
SILVER CITY    LGT RAIN  63  63 100 N9        30.29S

$$
NMZ407-409-411-412-221400-
SOUTHERN DESERTS

CITY           SKY/WX    TMP DP  RH WIND       PRES   REMARKS
LORDSBURG      FAIR      64  63  94 MISG      30.19S
DEMING         CLOUDY    67  65  93 E9        30.21R
LAS CRUCES     CLOUDY    67  65  91 SE3       30.24R
HOLLOMAN AFB   CLOUDY    67  64  89 N2        30.21R
ALAMOGORDO     CLOUDY    68  63  83 N6        30.23R
T OR C         CLOUDY    67  62  84 CALM      30.25S

$$
NMZ519>523-221400-
CENTRAL VALLEYS/CENTRAL HIGHLANDS

CITY           SKY/WX    TMP DP  RH WIND       PRES   REMARKS
ALBUQUERQUE    CLOUDY    66  56  70 S7        30.30R
DOUBLE EAGLE   CLOUDY    63  55  77 CALM      30.34R
CLINES CORNERS CLOUDY    56  55  97 SE8       30.40S
BELEN          CLOUDY    63  57  83 CALM      30.29S
SOCORRO        CLOUDY    63  61  91 CALM      30.27S

$$
NMZ524>526-539-540-221400-
SOUTHCENTRAL MOUNTAINS

CITY           SKY/WX    TMP DP  RH WIND       PRES   REMARKS
RUIDOSO        NOT AVBL

$$
NMZ527>531-221400-
NORTHEAST HIGHLANDS/NORTHEAST PLAINS

CITY           SKY/WX    TMP DP  RH WIND       PRES   REMARKS
LAS VEGAS      CLOUDY    56  55  97 S13       30.41S
RATON          CLOUDY    59  58  96 SW10      30.36S
CLAYTON        CLOUDY    60  53  77 S14       30.34S

$$
NMZ532>537-221400-
EASTCENTRAL PLAINS

CITY           SKY/WX    TMP DP  RH WIND       PRES   REMARKS
TUCUMCARI      CLOUDY    63  60  90 E6        30.30S
CANNON AFB     NOT AVBL
CLOVIS AIRPORT   N/A     61  59  94 E9        30.35S VSB 1/2

$$
NMZ028-029-538-221400-
SOUTHEAST PLAINS

CITY           SKY/WX    TMP DP  RH WIND       PRES   REMARKS
ROSWELL        CLOUDY    66  64  93 NE6       30.24S
CARLSBAD       CLOUDY    69  32  25 SE10      30.22R
HOBBS          CLOUDY    66  66 100 NE9       30.27R FOG


$$



USA.gov is the U.S. government's official web portal to all federal, state and local government web resources and services.